Regional Weather Roundup
Issued by NWS San Angelo, TX

Home | Current Version | Previous Version | Text Only | Print | Product List | Glossary On
Versions: 1 2 3 4 5 6 7 8 9 10 11 12 13 14 15 16 17 18 19 20 21 22 23 24 25 26 27 28 29 30 31 32 33 34 35 36 37 38 39 40 41 42 43 44 45 46 47 48 49 50
000
ASUS44 KSJT 250510
RWRSJT
WEST CENTRAL TEXAS REGIONAL WEATHER ROUNDUP
NATIONAL WEATHER SERVICE SAN ANGELO TX
1200 AM CDT WED APR 25 2018

NOTE: "FAIR" INDICATES FEW OR NO CLOUDS BELOW 12,000 FEET WITH NO
SIGNIFICANT WEATHER AND/OR OBSTRUCTIONS TO VISIBILITY.

TXZ049-054-064>066-071>073-076>078-098-099-113-114-127-128-139-140-
154-155-168>170-250600
...LOCATIONS ACROSS WEST CENTRAL TEXAS...

CITY           SKY/WX    TMP DP  RH WIND       PRES   REMARKS
SAN ANGELO     CLEAR     70  57  63 E18G25    30.04S
ABILENE        TSTM      63  57  81 SE20      30.09R
DYESS AFB      NOT AVBL
JUNCTION       CLEAR     73  51  46 NE8       30.06R
SWEETWATER     CLOUDY    62  58  87 E15G31    30.13R THUNDER
BROWNWOOD      CLOUDY    68  57  68 E12       30.09F
COLEMAN        RAIN      65  58  78 SE25      30.03F
SONORA         CLEAR     73  52  46 NE9       30.09R
OZONA          FAIR      75  52  43 S14G21    30.03R
BRADY          CLOUDY    70  55  60 NE14      30.13R
$$

TEXAS PANHANDLE/OKLAHOMA PANHANDLE

CITY           SKY/WX    TMP DP  RH WIND       PRES   REMARKS
AMARILLO       CLOUDY    45  36  70 N28G40    30.30R WCI  36
BORGER         CLOUDY    47  37  68 N24       30.34R WCI  39
CANADIAN       CLOUDY    49  40  72 N21G28    30.31R
DALHART        CLOUDY    43  35  73 N25G35    30.37R WCI  33
DUMAS          CLOUDY    43  34  71 N24G37    30.34R WCI  33
GUYMON         NOT AVBL
HEREFORD       CLOUDY    47  37  67 N28G37    30.30R WCI  38
PAMPA          CLOUDY    46  38  75 N25G32    30.31R WCI  37
PERRYTON       CLOUDY    46  39  76 N25       30.32R WCI  37
$$

SOUTHERN PANHANDLE/SOUTH PLAINS/ROLLING PLAINS

CITY           SKY/WX    TMP DP  RH WIND       PRES   REMARKS
LUBBOCK        MOCLDY    50  39  66 N25G32    30.20R
SNYDER         CLOUDY    64  56  74 NE14      30.12R
CHILDRESS      CLOUDY    56  45  66 N25G36    30.20R
SEMINOLE       CLEAR     56  42  58 NE22G35   30.16R
$$

PERMIAN BASIN

CITY           SKY/WX    TMP DP  RH WIND       PRES   REMARKS
MIDLAND        CLEAR     70  51  51 NE21      30.03R
ODESSA         CLEAR     70  49  47 NE24G33   30.04R
WINK           CLEAR     77  41  27 N15       29.98R
$$

FAR WEST/SOUTHWEST MOUNTAINS/TRANS PECOS

CITY           SKY/WX    TMP DP  RH WIND       PRES   REMARKS
ALPINE         CLEAR     71  43  36 CALM      30.13S
DRYDEN           N/A     79  58  48 SE13G22   29.95R
EL PASO        MOCLDY    77  25  14 S3        30.00R
FORT STOCKTON  PTCLDY    77  50  38 SE15      29.97S
GUADALUPE PASS PTCLDY    68  34  28 NE26G35   30.11F
MARFA          CLEAR     61  31  32 NE5       30.11S
PECOS          CLEAR     73  38  27 N5        29.95R
$$

DALLAS/FORT WORTH METROPLEX

CITY           SKY/WX    TMP DP  RH WIND       PRES   REMARKS
DFW AIRPORT    CLOUDY    69  52  54 E6        30.05S
FTW MEACHAM    CLOUDY    71  53  52 SE6       30.07R
DAL-EXECUTIVE  CLOUDY    68  53  58 SE3       30.07R
GRAND PRAIRIE  CLOUDY    71  50  47 CALM      30.08S
ADDISON        CLOUDY    71  42  35 E3        30.08S
MESQUITE       MOCLDY    63  49  61 CALM      30.07F
LANCASTER      CLOUDY    67  53  60 CALM      30.07S
$$

NORTH CENTRAL TEXAS

CITY           SKY/WX    TMP DP  RH WIND       PRES   REMARKS
SHRMAN/DENISON CLOUDY    64  49  57 E3        30.08S
GAINESVILLE    CLOUDY    64  53  68 CALM      30.08F
BRIDGEPORT     CLOUDY    68  52  56 W5        30.11R
DENTON         CLOUDY    67  54  63 CALM      30.06F
WAXAHACHIE     CLOUDY    67  55  63 CALM      30.10R
GRANBURY       CLOUDY    70  58  64 W10       30.13R
$$

WESTERN NORTH TEXAS

CITY           SKY/WX    TMP DP  RH WIND       PRES   REMARKS
WICHITA FALLS  CLOUDY    68  54  60 NE5       30.09R
VERNON         CLOUDY    66  48  52 NE17G26   30.13S
BRECKENRIDGE   CLOUDY    66  59  77 S16G25    30.02F
COMANCHE       CLOUDY    66  61  82 N12       30.14F
$$

CENTRAL AND SOUTH CENTRAL TEXAS

CITY           SKY/WX    TMP DP  RH WIND       PRES   REMARKS
AUSTIN/BERGSTM PTCLDY    60  57  89 CALM      30.06R
WACO           CLOUDY    67  56  67 SE3       30.07R
HILLSBORO      CLOUDY    69  57  64 E8        30.07S
TEMPLE         PTCLDY    68  59  73 E5        30.08R
KILLEEN-GRAY   NOT AVBL
FORT HOOD      NOT AVBL
GEORGETOWN     CLEAR     68  57  68 CALM      30.08R
LAGO VISTA     FAIR      71  55  55 SE5       30.08R
SAN MARCOS     CLEAR     65  54  67 SE3       30.06R
NEW BRAUNFELS  PTCLDY    64  55  72 SW8       30.04R
RANDOLPH AFB   NOT AVBL
SAN ANTONIO    PTCLDY    68  52  56 SE9       30.06R
STINSON        PTCLDY    68  54  60 SE6       30.03R
PLEASANTON     NOT AVBL
LA GRANGE      CLEAR     68  62  80 S7        30.04R
GIDDINGS       PTCLDY    64  60  87 SE3       30.07R
$$

EAST TEXAS

CITY           SKY/WX    TMP DP  RH WIND       PRES   REMARKS
PARIS          CLOUDY    63  46  54 N7        30.07S
CLARKSVILLE    NOT AVBL
TYLER          PTCLDY    61  52  72 CALM      30.07R
LONGVIEW       CLOUDY    58  55  90 S3        30.05R
PALESTINE      CLEAR     62  54  75 CALM      30.09R
NACOGDOCHES      N/A     56  54  93 CALM      30.08R
$$

TEXAS HILL COUNTRY AND EDWARDS PLATEAU

CITY           SKY/WX    TMP DP  RH WIND       PRES   REMARKS
LLANO          CLEAR     70  54  56 CALM      30.11R
HORSESHOE BAY  FAIR      68  55  62 S6        30.06R
KERRVILLE      CLEAR     69  52  54 SE9       30.07R
FREDERICKSBRG  CLEAR     68  51  55 SE3       30.08R
ROCKSPRINGS    PTCLDY    72  48  43 SE18G26   30.10R
HONDO          PTCLDY    72  52  49 SE8       30.04R
UVALDE         MOCLDY    72  52  48 SE8       30.03R
DEL RIO        PTCLDY    78  60  53 E9        29.95R
$$

SOUTHEAST TEXAS

CITY           SKY/WX    TMP DP  RH WIND       PRES   REMARKS
COLLEGE STN    CLEAR     69  60  73 E5        30.06R
CALDWELL       CLEAR     66  61  84 CALM      30.06S
CROCKETT       CLEAR     57  57 100 CALM      30.10S
BRENHAM        CLEAR     66  62  86 CALM      30.07R
HUNTSVILLE     CLEAR     64  59  83 CALM      30.07R
CONROE         CLEAR     60  60 100 CALM      30.07R
HOUSTON BUSH   FAIR      71  61  70 S8        30.07R
HOUSTON HOBBY  FAIR      68  62  81 SW5       30.07R
PERLAND        FAIR      68  62  81 SW3       30.08R
WHARTON        CLEAR     65  60  83 CALM      30.07R
$$

THE UPPER TEXAS COAST

CITY           SKY/WX    TMP DP  RH WIND       PRES   REMARKS
ORANGE         FAIR      62  62 100 CALM      30.07S FOG
PORT ARTHUR    FAIR      62  62 100 CALM      30.05R FOG
GALVESTON      FAIR      69  64  84 SW5       30.07S
ANGLETON       FAIR      64  61  90 CALM      30.07R
BAY CITY       FAIR      64  62  95 CALM      30.06S
$$

TEXAS COASTAL BEND, RIO GRANDE PLAINS DEEP SOUTH TEXAS

CITY           SKY/WX    TMP DP  RH WIND       PRES   REMARKS
VICTORIA       PTCLDY    65  61  87 S6        30.05S
BEEVILLE       FAIR      63  61  96 SE5       30.03S
ROCKPORT       PTCLDY    71  67  87 S8        30.03F
PORT ARANSAS   NOT AVBL
PORT LAVACA    CLEAR     66  63  90 S6        30.05S
CORPUS CHRISTI PTCLDY    68  65  90 S7        30.03S
KINGSVILLE NAS MOCLDY    66  61  84 SE5       30.02F
COTULLA        CLEAR     72  57  59 SE10      30.01R
LAREDO         CLEAR     76  56  49 SE16G23   30.00S
BROWNSVILLE    FAIR      74  68  81 SE8       30.03F
PORT ISABEL    FAIR      74  65  73 SE10      30.02F
HEBBRONVILLE   PTCLDY    70  57  64 S8        30.03F
MCALLEN        PTCLDY    75  67  76 SE13      30.02F
WESLACO        NOT AVBL
FALFURRIAS     CLEAR     70  63  77 SE5       30.02F
EDINBURG       CLOUDY    74  66  75 SE7       30.02F
$$



USA.gov is the U.S. government's official web portal to all federal, state and local government web resources and services.